Location: Chippewa Lake
(41.0698°N, 81.9010°W)
Time: 23:39:11
(UTC+00:00)

Cosmos 1908 - Pass Details

Date: 09 May 2021
Orbit: 511 x 528 km, 82.5° (Epoch: 24 June)

Event Time Altitude Azimuth Distance (km) Brightness Sun altitude
Rises 08:52:39 0° 338° (NNW) 2,662 7.0 -14.1°
Reaches altitude 10° 08:55:04 10° 325° (NW) 1,771 5.9 -13.8°
Maximum altitude 08:58:13 24° 270° (W) 1,123 4.5 -13.3°
Enters shadow 08:59:17 21° 245° (WSW) 1,215 4.5 -13.2°
